Theta_e
285 285 285 286 286 287 287 286 285 283 285 287 286 289 291 291 295 297 295 301 304 304 305 306 307 308 310 311 312 314 314 315 316 317 319 320 322 324
286 285 284 285 286 286 286 287 287 286 284 289 289 289 290 294 295 298 296 302 303 304 304 305 306 307 308 309 310 312 315 314 315 315 316 317 319 321
285 285 285 285 286 286 287 287 287 287 285 289 289 289 288 290 292 294 295 295 295 303 303 304 304 305 306 307 309 310 312 314 313 314 314 315 317 319
286 286 287 290 288 287 287 288 288 289 288 286 290 290 287 289 290 289 292 295 294 298 302 304 304 305 305 306 306 308 310 312 313 313 312 312 314 317
287 287 288 288 287 288 288 288 289 290 290 288 288 291 290 289 289 290 290 291 294 299 302 303 304 305 305 306 306 307 309 310 311 313 311 310 311 314
289 289 289 288 288 288 289 289 290 290 290 290 290 290 291 291 291 290 289 289 290 294 298 300 301 302 305 306 306 307 307 308 309 311 311 312 311 312
290 291 291 294 299 299 296 295 294 292 291 290 290 291 291 292 291 293 292 292 293 293 292 293 294 296 297 303 304 306 307 308 308 309 311 311 311 312
293 292 294 298 296 300 301 301 300 295 294 292 290 288 290 292 293 293 293 290 289 293 291 291 293 292 294 295 300 303 304 307 307 307 309 310 311 313
294 294 292 295 297 293 297 300 299 299 299 294 292 293 292 293 294 293 293 292 292 294 292 289 291 291 294 296 300 301 303 304 306 306 308 309 310 312
293 294 293 293 293 293 293 293 293 293 294 294 293 292 293 294 294 294 293 293 294 295 296 290 292 291 293 294 299 301 302 303 304 305 307 308 308 311
294 294 293 293 297 299 294 293 292 292 297 299 300 300 301 301 299 294 292 291 290 292 296 294 294 293 292 293 294 300 302 303 304 304 306 307 308 309
292 293 296 296 299 299 294 293 291 292 292 291 292 293 296 295 299 296 294 292 291 288 295 293 294 294 290 294 294 295 297 302 305 306 306 307 307 307
292 292 293 296 297 298 298 294 292 293 292 291 291 292 294 293 294 295 296 296 293 292 296 296 294 294 293 291 291 292 294 295 298 302 305 305 306 306
292 292 291 296 297 297 295 295 295 294 290 288 290 293 292 293 295 296 297 297 298 296 297 297 295 293 292 291 291 293 292 293 294 295 297 302 305 306
292 292 296 295 295 291 292 293 292 288 288 287 288 288 289 290 289 290 292 293 295 297 300 299 297 295 294 292 290 290 292 294 294 295 295 296 297 300
293 292 292 292 291 289 288 288 287 287 287 287 287 288 290 291 292 291 290 292 293 295 299 299 297 296 293 294 293 292 292 292 295 295 297 297 298 299
292 289 286 285 284 284 284 286 287 286 285 287 286 286 288 289 290 293 293 292 292 291 294 296 298 298 297 294 293 294 293 291 294 295 297 298 299 301
288 284 284 284 284 284 284 284 286 286 285 286 286 286 287 288 289 292 293 294 292 292 291 294 295 294 294 294 297 292 293 291 292 295 296 296 298 301
285 284 284 285 285 285 284 284 283 285 286 285 285 286 287 289 289 290 292 293 293 293 293 293 293 292 289 287 294 297 294 293 293 293 296 298 298 300
285 284 284 285 285 285 285 285 285 285 285 285 286 287 287 287 287 288 290 290 292 293 293 293 292 291 289 288 290 294 295 293 292 293 293 296 299 302
285 284 285 285 285 285 286 286 286 285 285 286 286 286 287 287 287 289 290 292 292 292 292 291 293 296 294 294 291 291 293 295 295 294 294 295 297 299
285 284 285 286 286 286 285 286 285 285 285 285 286 287 287 288 288 289 291 293 293 291 292 294 295 295 293 292 289 289 292 295 296 297 299 299 299 296
285 285 285 285 286 286 286 285 285 285 285 285 286 287 288 287 289 291 294 295 293 290 292 293 294 294 292 292 291 291 292 293 294 293 296 298 298 300
Wind_Speed
6 6 5 5 5 6 6 5 5 11 12 5 4 6 5 5 9 6 6 14 20 20 20 19 19 20 20 19 18 20 21 21 18 17 16 15 14 14
5 7 6 5 6 4 5 5 6 8 11 7 5 5 6 6 9 11 7 18 19 19 19 18 18 18 20 20 19 18 20 22 20 18 19 17 17 16
5 6 8 7 6 5 5 5 6 7 11 14 5 6 5 8 8 8 7 7 7 21 22 22 21 21 20 20 21 20 18 19 18 17 16 16 18 17
7 7 9 7 8 7 6 9 10 10 9 17 10 8 7 7 8 6 8 8 7 15 22 22 21 22 22 21 20 22 20 16 18 19 18 17 19 20
9 10 11 10 10 8 9 9 9 9 10 10 11 9 6 4 7 7 6 8 8 18 21 22 21 21 22 21 20 19 18 17 14 15 18 18 19 21
11 11 11 10 12 12 10 12 11 11 10 9 10 12 8 6 6 8 7 5 7 8 14 15 16 18 21 22 23 20 18 17 18 15 16 18 20 22
12 10 11 14 23 21 11 10 11 11 11 9 10 9 9 8 7 7 8 5 7 7 6 7 6 6 7 16 17 21 18 20 22 22 20 19 19 21
10 9 9 17 16 23 24 24 19 9 8 8 7 8 10 5 7 8 8 6 6 4 7 7 7 7 7 7 17 21 19 21 21 22 23 21 20 20
11 9 10 8 16 10 18 22 20 22 19 11 10 10 9 10 9 9 9 10 11 7 4 4 5 8 7 9 19 20 22 24 22 21 24 23 20 20
10 9 9 11 11 12 12 13 12 13 12 9 10 12 11 12 11 12 12 13 11 10 9 10 5 7 6 6 18 20 21 22 22 22 21 20 18 18
11 11 10 12 17 24 14 13 12 12 11 20 24 27 27 27 20 10 11 10 11 11 10 11 9 8 5 7 8 18 19 19 21 23 24 20 18 19
8 10 17 16 24 19 14 11 11 9 9 14 12 16 19 16 23 13 6 8 7 4 6 6 9 6 3 5 8 7 7 19 17 19 22 21 22 10
8 6 5 16 20 21 22 10 8 12 11 7 11 13 10 10 8 8 9 9 7 9 6 10 9 8 7 2 2 4 7 7 6 8 14 13 13 14
8 7 8 18 20 21 16 21 22 16 6 7 9 2 3 6 6 7 7 8 8 12 10 15 10 9 8 5 5 1 2 4 5 6 6 10 15 16
4 13 20 18 18 13 16 19 13 5 5 6 5 5 3 4 5 4 6 8 9 10 9 10 9 10 8 6 4 4 3 3 5 5 5 7 8 7
14 8 10 13 14 12 10 9 5 5 6 6 5 7 7 6 6 4 4 4 4 4 6 4 4 9 6 3 4 3 3 3 3 3 4 4 7 8
14 5 4 4 5 5 4 7 5 3 6 5 6 7 7 7 8 7 6 4 6 4 5 4 6 6 4 6 3 3 3 3 2 2 3 5 5 8
7 6 7 7 7 6 5 5 6 8 5 6 6 7 7 8 9 8 7 7 7 7 6 6 6 3 3 3 7 4 3 3 2 3 3 4 3 4
5 7 7 7 7 6 5 5 6 6 6 7 7 7 8 9 11 9 8 9 9 9 9 7 8 8 8 8 4 14 7 6 3 2 3 5 4 3
5 9 5 8 6 7 6 5 6 5 5 6 7 7 8 9 9 9 9 10 10 10 10 10 10 10 11 10 7 6 20 8 6 6 4 3 4 7
7 8 6 8 5 7 6 6 6 6 6 6 6 8 8 8 10 10 10 17 16 11 11 12 12 18 8 4 6 3 4 15 8 7 4 3 3 2
8 8 8 7 7 6 5 6 5 6 6 6 7 8 8 8 10 12 11 11 10 10 9 8 11 11 8 8 6 5 4 4 12 9 8 4 3 4
9 9 8 7 7 6 5 5 5 5 6 6 6 8 9 10 11 10 11 4 1 8 9 9 10 9 10 8 9 5 7 6 5 8 9 11 11 10
Wind_Direction
248 247 235 236 231 224 220 204 215 284 282 258 239 231 243 246 240 236 242 258 271 273 269 269 266 263 259 260 263 265 259 250 249 253 257 258 262 267
249 249 248 238 242 230 223 218 212 246 276 273 252 222 242 242 240 247 234 253 265 268 268 265 263 262 257 253 253 258 271 249 245 251 253 255 261 261
261 258 262 245 251 232 223 226 230 223 255 276 244 226 228 242 249 245 241 239 245 261 270 266 260 259 254 253 254 254 262 256 235 240 250 257 258 257
269 262 264 262 251 240 235 244 243 236 242 268 266 260 219 229 245 221 237 241 235 249 262 260 256 253 250 247 248 248 250 266 248 235 245 251 257 260
259 259 262 258 261 258 249 250 248 247 245 255 265 263 257 209 248 250 225 237 246 254 260 261 258 254 251 248 246 248 249 246 259 244 244 252 261 259
261 261 258 251 253 256 251 245 245 248 252 253 261 264 261 243 236 256 250 215 236 241 249 251 251 255 254 250 244 242 244 248 244 247 237 239 248 252
264 248 250 254 261 265 264 259 253 243 240 244 249 254 253 246 233 254 255 242 225 216 225 236 244 249 257 254 239 242 241 239 239 242 244 236 238 244
274 272 265 283 285 289 288 290 283 275 267 252 250 250 257 249 246 245 250 254 273 206 200 230 216 234 236 232 238 243 244 240 233 240 241 240 235 239
276 265 269 267 285 286 282 288 292 290 281 278 272 259 248 232 227 227 238 246 247 243 182 237 186 227 228 232 236 237 239 240 239 241 237 235 235 237
276 268 257 272 267 268 265 265 264 267 266 264 255 254 242 247 227 223 232 244 250 250 233 250 203 226 222 220 233 238 243 239 236 233 235 230 232 236
285 271 270 261 267 280 274 276 268 266 276 293 284 278 271 257 238 220 229 228 247 248 221 226 231 233 198 228 230 238 237 237 234 234 228 230 233 233
275 267 276 282 293 287 287 289 279 282 270 265 268 265 268 270 271 271 253 254 254 239 209 220 223 207 218 211 216 219 223 239 236 228 220 230 230 223
286 279 278 292 291 292 297 304 294 279 303 313 293 267 246 242 241 240 234 240 223 234 218 204 209 198 207 198 229 205 202 216 215 221 220 224 218 208
304 289 276 284 298 312 322 311 304 310 330 312 302 304 242 265 239 238 238 236 233 245 242 239 224 185 193 204 224 182 202 210 195 214 213 220 227 224
306 289 308 314 320 320 304 293 319 313 300 292 307 303 271 262 268 263 247 236 243 247 268 226 182 176 187 195 176 185 192 218 193 199 196 209 216 215
301 297 312 314 313 312 316 298 289 287 285 297 298 304 299 301 288 254 244 238 236 237 189 197 172 167 174 189 163 163 198 210 168 195 210 210 218 220
335 311 304 282 283 281 291 302 282 260 283 290 292 289 287 284 276 274 246 226 233 204 190 193 182 190 153 150 165 186 170 214 207 214 193 234 213 211
335 309 300 291 280 272 273 286 291 291 277 284 286 283 276 276 281 276 261 243 235 214 205 180 172 155 151 210 204 180 195 221 221 220 213 245 238 208
298 297 294 293 295 284 264 265 276 276 287 285 274 278 281 281 284 273 262 247 231 217 208 194 174 195 200 213 162 197 205 221 216 214 194 216 234 231
292 301 292 300 298 294 285 252 273 277 275 276 279 281 283 279 276 262 252 247 242 219 206 192 190 188 202 203 192 194 199 202 200 213 206 222 250 280
300 304 297 303 291 293 284 276 265 268 276 283 285 282 283 282 278 273 265 255 235 222 204 194 191 182 196 144 205 162 195 209 181 195 184 203 215 227
303 303 297 299 291 290 276 278 271 271 283 275 284 290 290 287 289 291 286 277 223 201 198 180 168 173 180 196 185 177 189 216 213 213 210 202 186 213
304 302 297 296 290 284 271 267 266 266 273 278 290 296 299 302 299 299 300 316 101 146 179 161 160 175 186 190 181 173 175 184 182 204 240 248 250 253